Location: *
(58.7167°N, 26.1833°E)
Time: 09:46:45
(UTC+00:00)

ALOS 2 - Pass Details

Date: 25 August 2019
Orbit: 630 x 632 km, 97.9° (Epoch: 20 October)

Event Time Altitude Azimuth Distance (km) Brightness Sun altitude
Exits shadow 21:12:47 45° 149° (SSE) 865 2.8 -19.4°
Maximum altitude 21:14:06 79° 72° (ENE) 653 2.6 -19.5°
Drops below altitude 10° 21:18:31 10° 345° (NNW) 2,031 6.4 -19.6°
Sets 21:20:44 0° 345° (NNW) 2,943 7.7 -19.7°
